Location: Brantley
(31.5822°N, 86.2569°W)
Time: 19:42:39
(UTC+00:00)

Courier 1B Rocket - Pass Details

Date: 17 February 2026
Orbit: 920 x 1201 km, 28.2° (Epoch: 10 March)

Event Time Altitude Azimuth Distance (km) Brightness Sun altitude
Rises 02:58:55 0° 262° (W) 3,579 8.6 -44.3°
Reaches altitude 10° 03:01:29 10° 259° (W) 2,658 7.8 -44.8°
Enters shadow 03:02:40 16° 258° (WSW) 2,251 7.3 -45.0°
Maximum altitude 03:07:51 67° 179° (S) 1,060 - -46.1°
Drops below altitude 10° 03:14:39 10° 97° (E) 2,836 - -47.5°
Sets 03:17:28 0° 95° (E) 3,834 - -48.0°
